Total_Precipitation_Accumulation
0.97 1.08 1.16 1.45 1.70 1.87 2.05 2.16 2.24 2.31 2.53 2.67 2.64 2.57 2.41 2.17 2.06 2.02 1.89 1.75 1.67 1.69 1.69 1.56 1.46 1.40 1.30 1.18 1.09 1.02 1.00 0.97 0.92 0.89 0.76 0.64 0.58 0.55 0.49 0.45 0.42 0.39 0.37
0.84 0.97 1.03 1.17 1.37 1.59 1.83 2.06 2.15 2.24 2.25 2.31 2.51 2.65 2.72 2.52 2.22 2.05 1.96 1.84 1.76 1.74 1.70 1.67 1.61 1.52 1.45 1.41 1.36 1.31 1.22 1.16 1.16 1.14 1.10 0.93 0.75 0.60 0.52 0.53 0.52 0.48 0.46
0.69 0.79 0.88 1.09 1.24 1.38 1.62 1.91 2.06 2.18 2.19 2.22 2.46 2.67 2.81 2.66 2.34 2.00 1.84 1.85 1.86 1.86 1.76 1.74 1.75 1.66 1.55 1.46 1.43 1.40 1.34 1.28 1.26 1.28 1.33 1.17 0.91 0.67 0.55 0.50 0.51 0.51 0.50
0.58 0.64 0.77 0.93 1.05 1.22 1.40 1.57 1.75 1.91 2.10 2.17 2.21 2.27 2.37 2.36 2.14 2.03 1.94 1.95 1.95 1.94 1.88 1.82 1.81 1.77 1.68 1.53 1.47 1.42 1.34 1.30 1.26 1.25 1.21 1.11 0.94 0.87 0.73 0.55 0.51 0.53 0.52
0.61 0.61 0.73 0.89 0.95 1.07 1.33 1.45 1.52 1.69 1.90 2.05 2.12 2.22 2.18 2.21 2.27 2.23 2.15 2.06 2.01 1.96 1.89 1.83 1.81 1.73 1.66 1.62 1.63 1.56 1.50 1.40 1.31 1.26 1.22 1.20 1.04 0.89 0.87 0.70 0.54 0.55 0.55
0.68 0.72 0.80 0.86 0.91 0.98 1.17 1.38 1.39 1.47 1.60 1.82 2.04 2.12 2.03 2.03 2.08 2.07 2.03 2.02 2.02 1.99 1.90 1.78 1.73 1.69 1.66 1.63 1.64 1.69 1.62 1.55 1.47 1.38 1.30 1.30 1.24 1.07 1.02 0.93 0.71 0.63 0.58
0.65 0.72 0.78 0.75 0.80 0.88 1.00 1.19 1.28 1.37 1.43 1.56 1.73 1.93 2.01 1.99 2.00 2.00 1.96 1.89 1.80 1.73 1.72 1.73 1.67 1.61 1.56 1.57 1.58 1.64 1.62 1.56 1.51 1.43 1.36 1.34 1.28 1.19 1.17 1.12 0.94 0.81 0.69
0.51 0.56 0.65 0.69 0.76 0.81 0.86 0.93 1.00 1.07 1.13 1.21 1.33 1.50 1.72 1.82 1.77 1.79 1.78 1.75 1.67 1.65 1.65 1.64 1.64 1.64 1.61 1.56 1.57 1.58 1.58 1.57 1.49 1.38 1.32 1.26 1.20 1.21 1.23 1.21 1.22 1.17 0.95
0.51 0.51 0.58 0.61 0.68 0.75 0.81 0.82 0.84 0.89 0.97 0.99 1.07 1.15 1.33 1.49 1.54 1.59 1.55 1.47 1.46 1.52 1.53 1.52 1.53 1.55 1.56 1.54 1.55 1.54 1.51 1.51 1.48 1.41 1.33 1.21 1.09 1.08 1.10 1.13 1.20 1.33 1.23
0.49 0.47 0.52 0.55 0.59 0.67 0.74 0.75 0.76 0.79 0.91 0.95 0.97 1.01 1.08 1.17 1.32 1.41 1.34 1.29 1.29 1.32 1.35 1.34 1.34 1.36 1.38 1.39 1.41 1.40 1.37 1.35 1.30 1.30 1.30 1.25 1.15 1.12 1.14 1.19 1.24 1.32 1.37
0.49 0.50 0.53 0.55 0.59 0.66 0.67 0.66 0.73 0.78 0.87 0.91 0.88 0.87 0.92 0.97 1.02 1.11 1.14 1.11 1.14 1.12 1.12 1.13 1.14 1.13 1.16 1.20 1.23 1.20 1.20 1.24 1.23 1.21 1.23 1.25 1.22 1.23 1.22 1.27 1.33 1.38 1.44
0.46 0.46 0.47 0.51 0.56 0.59 0.57 0.56 0.63 0.70 0.81 0.84 0.79 0.78 0.83 0.88 0.89 0.90 0.95 0.96 0.98 1.00 1.01 1.01 1.01 0.97 0.95 1.00 1.04 1.06 1.06 1.09 1.11 1.13 1.18 1.21 1.22 1.27 1.29 1.33 1.37 1.39 1.38
0.33 0.33 0.35 0.37 0.39 0.40 0.42 0.49 0.53 0.53 0.58 0.62 0.60 0.59 0.62 0.68 0.74 0.76 0.76 0.78 0.83 0.87 0.90 0.90 0.91 0.91 0.89 0.91 0.93 0.93 0.94 0.96 0.98 1.00 1.03 1.03 1.08 1.15 1.19 1.24 1.28 1.28 1.27
0.25 0.27 0.29 0.28 0.30 0.32 0.35 0.40 0.40 0.41 0.47 0.48 0.47 0.47 0.49 0.52 0.57 0.60 0.60 0.61 0.65 0.70 0.73 0.78 0.81 0.81 0.82 0.86 0.91 0.94 0.93 0.91 0.90 0.89 0.92 0.94 0.98 1.02 1.08 1.15 1.19 1.20 1.20
0.20 0.23 0.24 0.24 0.27 0.28 0.30 0.32 0.35 0.41 0.47 0.49 0.49 0.47 0.45 0.46 0.49 0.53 0.54 0.53 0.54 0.54 0.56 0.61 0.68 0.73 0.75 0.78 0.83 0.86 0.89 0.90 0.90 0.91 0.96 1.01 1.12 1.12 1.07 1.04 1.03 1.06 1.12
0.15 0.17 0.18 0.20 0.22 0.26 0.30 0.33 0.39 0.48 0.52 0.55 0.51 0.50 0.47 0.44 0.42 0.41 0.43 0.43 0.44 0.45 0.49 0.53 0.56 0.63 0.69 0.87 0.86 0.80 0.80 0.88 0.93 0.95 0.95 0.98 1.09 1.07 1.04 0.98 0.94 0.96 1.03
0.13 0.14 0.15 0.18 0.20 0.28 0.35 0.42 0.47 0.55 0.57 0.59 0.54 0.50 0.46 0.43 0.40 0.37 0.37 0.39 0.41 0.44 0.48 0.51 0.55 0.60 0.74 0.91 0.88 0.91 0.82 0.85 0.90 0.93 0.92 0.87 0.84 0.87 0.78 0.82 0.87 0.87 0.87
0.09 0.09 0.11 0.13 0.14 0.20 0.30 0.39 0.46 0.57 0.60 0.59 0.58 0.57 0.57 0.57 0.59 0.58 0.58 0.58 0.56 0.58 0.63 0.68 0.71 0.74 0.84 0.91 0.84 0.81 0.74 0.77 0.79 0.77 0.76 0.72 0.67 0.65 0.66 0.68 0.73 0.65 0.61
0.06 0.06 0.08 0.09 0.09 0.12 0.19 0.29 0.42 0.58 0.70 0.76 0.74 0.74 0.78 0.84 0.89 0.91 0.90 0.88 0.88 0.87 0.84 0.82 0.77 0.73 0.74 0.77 0.73 0.68 0.62 0.63 0.62 0.58 0.58 0.58 0.55 0.63 0.72 0.67 0.62 0.55 0.53
0.09 0.08 0.08 0.10 0.12 0.14 0.21 0.35 0.52 0.68 0.78 0.82 0.85 0.88 0.94 1.01 0.99 0.98 0.95 0.88 0.83 0.82 0.80 0.78 0.73 0.67 0.60 0.58 0.54 0.52 0.47 0.46 0.43 0.41 0.41 0.48 0.49 0.60 0.68 0.61 0.58 0.55 0.46
0.18 0.19 0.20 0.23 0.25 0.27 0.36 0.51 0.62 0.71 0.75 0.76 0.77 0.80 0.79 0.81 0.79 0.77 0.74 0.70 0.64 0.59 0.55 0.51 0.47 0.43 0.41 0.40 0.39 0.40 0.37 0.37 0.38 0.38 0.37 0.39 0.50 0.55 0.59 0.60 0.52 0.52 0.54
0.23 0.30 0.36 0.39 0.39 0.41 0.48 0.55 0.57 0.57 0.56 0.54 0.52 0.50 0.46 0.43 0.43 0.44 0.45 0.44 0.42 0.38 0.36 0.33 0.32 0.29 0.28 0.29 0.31 0.36 0.40 0.42 0.40 0.37 0.36 0.39 0.52 0.58 0.58 0.54 0.53 0.59 0.63
0.11 0.15 0.22 0.25 0.26 0.26 0.29 0.31 0.28 0.25 0.22 0.20 0.20 0.19 0.17 0.17 0.19 0.20 0.21 0.23 0.25 0.25 0.26 0.25 0.26 0.25 0.24 0.27 0.31 0.35 0.42 0.48 0.45 0.40 0.43 0.47 0.52 0.54 0.52 0.52 0.55 0.56 0.53
0.06 0.07 0.08 0.09 0.09 0.09 0.10 0.10 0.09 0.07 0.07 0.07 0.08 0.09 0.11 0.13 0.14 0.15 0.16 0.17 0.18 0.19 0.22 0.23 0.24 0.24 0.23 0.24 0.28 0.32 0.38 0.47 0.48 0.47 0.47 0.50 0.50 0.49 0.48 0.49 0.50 0.48 0.48
0.07 0.07 0.07 0.07 0.07 0.07 0.07 0.07 0.07 0.07 0.08 0.08 0.09 0.09 0.11 0.13 0.14 0.15 0.16 0.18 0.17 0.20 0.25 0.26 0.27 0.29 0.28 0.26 0.35 0.42 0.44 0.48 0.52 0.55 0.53 0.49 0.46 0.44 0.42 0.42 0.42 0.44 0.46
0.09 0.09 0.09 0.09 0.11 0.11 0.12 0.13 0.13 0.12 0.13 0.13 0.13 0.15 0.15 0.15 0.15 0.16 0.16 0.18 0.20 0.22 0.24 0.26 0.28 0.27 0.29 0.33 0.40 0.45 0.49 0.54 0.62 0.66 0.58 0.46 0.41 0.39 0.40 0.41 0.43 0.43 0.45